カタログに戻る

COSMOS 1867 COOLANT

運用中LEO
NORAD 39643·DEBRIS·🇷🇺 Russia

打ち上げ Jul 10, 1987 から Baikonur Cosmodrome

Loading…

次のパス (今後24時間)

TLE

最新Source: Space-Track

元期: Sep 14, 2026, 08:14 UTC

1 39643U 87060L   26257.34310611  .00000169  00000-0  95038-4 0  9992
2 39643  65.0087 111.6776 0019201 276.8079  83.0823 14.34778952650560

AllMySatでCOSMOS 1867 COOLANTをリアルタイム追跡

Download on the App Store